EST,Max TemperatureF,Mean TemperatureF,Min TemperatureF,Max Dew PointF,MeanDew PointF,Min DewpointF,Max Humidity, Mean Humidity, Min Humidity, Max Sea Level PressureIn, Mean Sea Level PressureIn, Min Sea Level PressureIn, Max VisibilityMiles, Mean VisibilityMiles, Min VisibilityMiles, Max Wind SpeedMPH, Mean Wind SpeedMPH, Max Gust SpeedMPH,PrecipitationIn, CloudCover, Events, WindDirDegrees
2013-2-1,33,24,16,28,7,-1,84,47,29,30.34,30.10,29.77,10,10,2,25,8,33,0.00,3,Snow,285
2013-2-2,34,24,14,24,13,4,84,65,29,30.34,30.16,29.96,10,10,4,17,4,22,0.00,4,Snow,193
2013-2-3,39,31,23,28,21,11,90,66,40,29.96,29.88,29.79,10,10,7,14,3,21,0.00,7,Snow,256
2013-2-4,39,31,23,30,16,10,72,52,42,30.07,29.96,29.87,10,10,5,15,6,17,0.00,1,Snow,207
2013-2-5,53,42,31,32,30,25,86,61,44,29.91,29.86,29.83,10,10,10,18,8,23,0.00,6,,212
2013-2-6,51,40,28,32,26,21,88,59,31,30.30,30.13,29.92,10,10,10,10,3,,0.00,2,,298
2013-2-7,41,33,25,28,25,21,87,70,57,30.37,30.29,30.14,10,10,5,10,2,,0.00,6,,192
2013-2-8,46,39,32,37,30,20,96,77,52,30.13,29.94,29.78,10,5,1,18,3,28,0.09,7,Snow,312
2013-2-9,47,34,22,20,13,8,73,43,22,30.36,30.22,30.02,10,10,10,21,7,28,0.00,0,,343
2013-2-10,46,31,16,29,16,12,86,54,28,30.43,30.33,30.19,10,10,10,12,3,20,0.01,1,Rain,179
2013-2-11,64,51,38,49,36,16,85,60,22,30.19,29.93,29.79,10,10,10,16,6,28,0.00,4,,217
2013-2-12,62,51,40,24,18,10,50,31,13,29.99,29.94,29.85,10,10,10,14,8,24,0.00,0,,253
2013-2-13,47,38,31,36,29,23,94,72,39,29.94,29.77,29.64,10,7,0,9,1,,0.05,7,Fog-Rain-Snow,356
2013-2-14,50,38,26,33,26,23,97,69,35,30.01,29.95,29.81,10,8,0,9,2,,0.01,1,Fog,207
2013-2-15,59,41,24,38,29,20,94,71,33,30.05,29.98,29.89,10,10,5,15,3,23,0.05,4,Rain,239
2013-2-16,37,30,24,34,24,12,96,71,45,29.99,29.91,29.84,10,8,0,14,3,17,0.05,6,Fog,354
2013-2-17,29,24,18,17,4,-1,71,43,28,30.20,30.03,29.87,10,10,10,20,7,28,0.00,3,,297
2013-2-18,49,30,12,21,11,4,78,46,23,30.34,30.23,30.11,10,10,10,14,2,17,0.00,0,,188
2013-2-19,51,42,32,40,27,13,86,60,32,30.10,29.91,29.73,10,10,5,18,7,34,0.03,4,Rain,230
2013-2-20,42,34,24,14,11,9,62,40,26,30.13,30.00,29.89,10,10,10,16,7,34,0.00,0,,286
2013-2-21,44,31,19,17,13,11,70,49,29,30.29,30.18,30.11,10,10,10,12,3,,0.00,0,,16
2013-2-22,38,33,29,28,24,16,82,67,53,30.33,30.24,30.14,10,9,2,10,3,,0.01,7,Snow,183
2013-2-23,52,42,34,39,33,28,91,77,61,30.14,29.95,29.81,10,10,4,7,2,,0.00,5,,200
2013-2-24,55,44,32,39,27,18,95,63,24,30.11,29.92,29.81,10,7,0,17,4,18,0.00,3,Fog,334
2013-2-25,43,32,22,20,18,15,77,55,36,30.22,30.16,30.11,10,10,10,10,4,16,0.00,1,Snow,24
2013-2-26,39,31,23,38,29,18,95,85,72,30.18,29.94,29.62,10,6,1,13,2,,0.67,6,Rain,355
2013-2-27,52,44,36,43,34,29,95,71,44,29.72,29.66,29.58,10,7,0,17,4,23,0.01,7,Fog,243
2013-2-28,45,38,33,32,25,21,76,58,41,29.77,29.70,29.65,10,10,10,14,5,20,0.00,7,,258